Location: Daytona Beach
(29.2106°N, 81.0231°W)
Time: 00:26:14
(UTC-04:00)

ISS - Pass Details

Date: 28 June 2021
Orbit: 419 x 421 km, 51.6° (Epoch: 03 August)

Event Time Altitude Azimuth Distance (km) Brightness Sun altitude
Exits shadow 05:13:02 - 296° (WNW) 1,559 -1.1 -14.5°
Reaches altitude 10° 05:13:23 10° 301° (WNW) 1,496 -1.2 -14.5°
Maximum altitude 05:14:44 12° 325° (NW) 1,384 -1.1 -14.2°
Drops below altitude 10° 05:16:06 10° 349° (N) 1,497 -0.6 -14.0°
Sets 05:19:19 0° 23° (NNE) 2,363 1.1 -13.4°
